When you browse on this site, cookies collect data to enhance your experience and personalize the content and advertising you see.
Visit our Privacy Policy to learn more. By continuing to use the site, you agree to this use of cookies and data.
  • In Latvia
  • List of Countries
  • For 7 days
  • Water Temperature
  • Weather Map
  • Weather Widgets
  • user-avatar
    Login

    Hourly Weather Dubovka

    Today, 24 August, Saturday

    Time Temperature Precipitation Wind Pressure Humidity
    00:00 +15°C° 0 mm 2 mps 748 mmHg 84%
    01:00 +14°C° 0 mm 2 mps 748 mmHg 85%
    02:00 +14°C° 0 mm 1 mps 748 mmHg 85%
    03:00 +13°C° 0 mm 1 mps 748 mmHg 83%
    04:00 +13°C° 0 mm 1 mps 748 mmHg 84%
    05:00 +13°C° 0 mm 1 mps 748 mmHg 85%
    06:00 +13°C° 0 mm 1 mps 748 mmHg 86%
    07:00 +15°C° 0 mm 1 mps 748 mmHg 80%
    08:00 +16°C° 0 mm 0 mps 748 mmHg 74%
    09:00 +17°C° 0 mm 0 mps 748 mmHg 69%
    10:00 +20°C° 0 mm 1 mps 748 mmHg 64%
    11:00 +22°C° 0 mm 1 mps 747 mmHg 59%
    12:00 +23°C° 0 mm 1 mps 747 mmHg 54%
    13:00 +23°C° 0 mm 2 mps 747 mmHg 52%
    14:00 +24°C° 0 mm 2 mps 747 mmHg 51%
    15:00 +24°C° 0 mm 2 mps 746 mmHg 49%
    16:00 +23°C° 0 mm 2 mps 746 mmHg 54%
    17:00 +23°C° 0 mm 2 mps 746 mmHg 59%
    18:00 +21°C° 0 mm 2 mps 745 mmHg 64%
    19:00 +20°C° 0 mm 2 mps 745 mmHg 67%
    20:00 +18°C° 0 mm 2 mps 745 mmHg 71%
    21:00 +17°C° 0 mm 2 mps 745 mmHg 74%
    22:00 +16°C° 0 mm 2 mps 745 mmHg 76%
    23:00 +16°C° 0 mm 2 mps 745 mmHg 79%

    Tomorrow, 25 August, Sunday

    Time Temperature Precipitation Wind Pressure Humidity
    00:00 +14°C° 0 mm 3 mps 745 mmHg 82%
    01:00 +14°C° 0 mm 3 mps 745 mmHg 85%
    02:00 +14°C° 0 mm 3 mps 745 mmHg 88%
    03:00 +14°C° 0 mm 3 mps 745 mmHg 91%
    04:00 +13°C° 0 mm 3 mps 745 mmHg 92%
    05:00 +13°C° 0 mm 3 mps 745 mmHg 93%
    06:00 +13°C° 0 mm 3 mps 745 mmHg 95%
    07:00 +14°C° 0 mm 3 mps 745 mmHg 87%
    08:00 +16°C° 0 mm 3 mps 746 mmHg 79%
    09:00 +18°C° 0 mm 4 mps 746 mmHg 72%
    10:00 +19°C° 0 mm 4 mps 746 mmHg 68%
    11:00 +19°C° 0 mm 4 mps 746 mmHg 63%
    12:00 +20°C° 0 mm 5 mps 746 mmHg 59%
    13:00 +21°C° 0 mm 4 mps 747 mmHg 59%
    14:00 +21°C° 0 mm 4 mps 747 mmHg 58%
    15:00 +21°C° 0 mm 4 mps 747 mmHg 57%
    16:00 +21°C° 0 mm 4 mps 747 mmHg 62%
    17:00 +20°C° 0 mm 3 mps 747 mmHg 66%
    18:00 +19°C° 0 mm 2 mps 747 mmHg 71%
    19:00 +18°C° 0 mm 2 mps 747 mmHg 75%
    20:00 +17°C° 0 mm 2 mps 748 mmHg 79%
    21:00 +15°C° 0 mm 2 mps 748 mmHg 82%
    22:00 +15°C° 0 mm 2 mps 748 mmHg 84%
    23:00 +14°C° 0 mm 2 mps 748 mmHg 86%

    Day after tomorrow, 26 August, Monday

    Time Temperature Precipitation Wind Pressure Humidity
    00:00 +13°C° 0 mm 2 mps 749 mmHg 88%
    01:00 +13°C° 0 mm 2 mps 749 mmHg 89%
    02:00 +12°C° 0 mm 2 mps 749 mmHg 90%
    03:00 +12°C° 0 mm 1 mps 749 mmHg 91%
    04:00 +12°C° 0 mm 1 mps 749 mmHg 92%
    05:00 +11°C° 0 mm 1 mps 749 mmHg 92%
    06:00 +10°C° 0 mm 0 mps 749 mmHg 92%
    07:00 +12°C° 0 mm 0 mps 749 mmHg 86%
    08:00 +14°C° 0 mm 0 mps 749 mmHg 80%
    09:00 +15°C° 0 mm 0 mps 749 mmHg 73%
    10:00 +17°C° 0 mm 0 mps 749 mmHg 68%
    11:00 +18°C° 0 mm 0 mps 749 mmHg 62%
    12:00 +21°C° 0 mm 1 mps 749 mmHg 57%
    13:00 +21°C° 0 mm 1 mps 749 mmHg 54%
    14:00 +22°C° 0 mm 1 mps 749 mmHg 52%
    15:00 +21°C° 0 mm 2 mps 748 mmHg 50%
    16:00 +21°C° 0 mm 2 mps 748 mmHg 53%
    17:00 +21°C° 0 mm 2 mps 747 mmHg 57%
    18:00 +21°C° 0 mm 1 mps 747 mmHg 61%
    19:00 +20°C° 0 mm 1 mps 746 mmHg 64%
    20:00 +17°C° 0 mm 2 mps 746 mmHg 67%
    21:00 +16°C° 0 mm 2 mps 746 mmHg 70%
    22:00 +16°C° 0 mm 2 mps 746 mmHg 72%
    23:00 +15°C° 0 mm 2 mps 746 mmHg 75%

    27 August, Tuesday

    Time Temperature Precipitation Wind Pressure Humidity
    00:00 +15°C° 0 mm 2 mps 745 mmHg 77%
    01:00 +13°C° 0 mm 3 mps 745 mmHg 79%
    02:00 +13°C° 0 mm 3 mps 745 mmHg 81%
    03:00 +13°C° 0 mm 3 mps 744 mmHg 82%
    04:00 +13°C° 0 mm 3 mps 744 mmHg 84%
    05:00 +13°C° 0 mm 3 mps 744 mmHg 85%
    06:00 +12°C° 0 mm 3 mps 743 mmHg 87%
    07:00 +14°C° 0 mm 4 mps 743 mmHg 83%
    08:00 +15°C° 0 mm 5 mps 743 mmHg 79%
    09:00 +17°C° 0 mm 5 mps 742 mmHg 75%
    10:00 +19°C° 0.1 mm 5 mps 742 mmHg 72%
    11:00 +20°C° 0.1 mm 6 mps 741 mmHg 69%
    12:00 +21°C° 0.1 mm 6 mps 741 mmHg 66%
    13:00 +22°C° 0.5 mm 6 mps 741 mmHg 66%
    14:00 +22°C° 0.5 mm 6 mps 740 mmHg 66%
    15:00 +22°C° 0.5 mm 6 mps 740 mmHg 66%
    16:00 +21°C° 0.2 mm 6 mps 740 mmHg 67%
    17:00 +20°C° 0.2 mm 5 mps 739 mmHg 68%
    18:00 +19°C° 0.2 mm 5 mps 739 mmHg 70%
    19:00 +17°C° 0 mm 5 mps 739 mmHg 71%
    20:00 +16°C° 0 mm 5 mps 740 mmHg 72%
    21:00 +14°C° 0 mm 5 mps 740 mmHg 73%
    22:00 +13°C° 0 mm 5 mps 740 mmHg 74%
    23:00 +12°C° 0 mm 5 mps 741 mmHg 76%

    28 August, Wednesday

    Time Temperature Precipitation Wind Pressure Humidity
    00:00 +9°C° 0 mm 5 mps 741 mmHg 77%
    01:00 +8°C° 0 mm 5 mps 741 mmHg 77%
    02:00 +7°C° 0 mm 5 mps 742 mmHg 77%
    03:00 +6°C° 0 mm 5 mps 742 mmHg 77%
    04:00 +5°C° 0 mm 4 mps 742 mmHg 77%
    05:00 +5°C° 0 mm 4 mps 742 mmHg 76%
    06:00 +4°C° 0 mm 4 mps 743 mmHg 76%
    07:00 +5°C° 0 mm 5 mps 743 mmHg 73%
    08:00 +5°C° 0 mm 6 mps 743 mmHg 71%
    09:00 +7°C° 0 mm 6 mps 743 mmHg 68%
    10:00 +8°C° 0 mm 6 mps 744 mmHg 65%
    11:00 +9°C° 0 mm 6 mps 744 mmHg 61%
    12:00 +9°C° 0 mm 6 mps 744 mmHg 58%
    13:00 +10°C° 0 mm 6 mps 744 mmHg 57%
    14:00 +11°C° 0 mm 6 mps 744 mmHg 56%
    15:00 +11°C° 0 mm 6 mps 743 mmHg 55%
    16:00 +12°C° 0 mm 5 mps 743 mmHg 57%
    17:00 +12°C° 0 mm 5 mps 743 mmHg 60%
    18:00 +11°C° 0 mm 4 mps 743 mmHg 62%
    19:00 +10°C° 0 mm 4 mps 744 mmHg 67%
    20:00 +8°C° 0 mm 3 mps 744 mmHg 72%
    21:00 +7°C° 0 mm 3 mps 744 mmHg 77%
    22:00 +6°C° 0 mm 2 mps 744 mmHg 78%
    23:00 +6°C° 0 mm 2 mps 744 mmHg 79%

    29 August, Thursday

    Time Temperature Precipitation Wind Pressure Humidity
    00:00 +5°C° 0 mm 2 mps 744 mmHg 80%
    01:00 +5°C° 0 mm 2 mps 744 mmHg 81%
    02:00 +5°C° 0 mm 2 mps 744 mmHg 82%
    03:00 +4°C° 0 mm 3 mps 744 mmHg 83%
    04:00 +3°C° 0 mm 3 mps 744 mmHg 85%
    05:00 +3°C° 0 mm 3 mps 744 mmHg 87%
    06:00 +3°C° 0 mm 3 mps 744 mmHg 88%
    07:00 +5°C° 0 mm 4 mps 744 mmHg 82%
    08:00 +6°C° 0 mm 4 mps 744 mmHg 76%
    09:00 +8°C° 0 mm 5 mps 744 mmHg 69%
    10:00 +8°C° 0 mm 5 mps 744 mmHg 68%
    11:00 +8°C° 0 mm 5 mps 744 mmHg 66%
    12:00 +9°C° 0 mm 6 mps 744 mmHg 65%
    13:00 +9°C° 0 mm 5 mps 744 mmHg 62%
    14:00 +10°C° 0 mm 5 mps 744 mmHg 60%
    15:00 +12°C° 0 mm 5 mps 743 mmHg 58%
    16:00 +12°C° 0 mm 5 mps 744 mmHg 60%
    17:00 +12°C° 0 mm 4 mps 744 mmHg 62%
    18:00 +11°C° 0 mm 4 mps 744 mmHg 65%
    19:00 +10°C° 0 mm 4 mps 744 mmHg 68%
    20:00 +9°C° 0 mm 3 mps 744 mmHg 72%
    21:00 +8°C° 0 mm 3 mps 744 mmHg 75%
    22:00 +7°C° 0 mm 3 mps 744 mmHg 78%
    23:00 +5°C° 0 mm 3 mps 745 mmHg 80%
    Show more